Regional Weather Roundup
Issued by NWS

Home | Current Version | Previous Version | Graphics & Text | Print | Product List | Glossary Off
Versions: 1 2 3 4 5 6 7 8 9 10 11 12 13 14 15 16 17 18 19 20 21 22 23 24 25 26 27 28 29 30 31 32 33 34 35 36 37 38 39 40 41 42 43 44 45 46 47 48 49 50

000
ASUS43 KLSX 030010
RWRMO

WEATHER SUMMARY FOR MISSOURI
NATIONAL WEATHER SERVICE SPRINGFIELD MO
700 PM CDT MON MAY 02 2016

NOTE: "FAIR" INDICATES FEW OR NO CLOUDS BELOW 12,000 FEET WITH NO
       SIGNIFICANT WEATHER AND/OR OBSTRUCTIONS TO VISIBILITY.
       CURRENT SKY AND/OR WEATHER CONDITIONS ARE NOT AVAILABLE FOR
       CHILLICOTHE AND FARMINGTON.

MOZ001>031-035>038-043-044-053-054-030100-
...NORTHERN AND WESTERN MISSOURI...

CITY           SKY/WX    TMP DP  RH WIND       PRES   REMARKS
KANSAS CTY INT PTSUNNY   56  46  69 W5        30.06F
6HR MIN TEMP:  53; 6HR MAX TEMP:  57; 6HR PCP:  0.01;

KANSAS C DTWN  CLOUDY    57  46  66 CALM      30.06F
6HR MIN TEMP:  53; 6HR MAX TEMP:  57; 6HR PCP: TRACE;

LEE`S SUMMIT   CLOUDY    53  47  79 SW5       30.07S
6HR MIN TEMP:  51; 6HR MAX TEMP:  55; 6HR PCP: TRACE;

ST JOSEPH      MOSUNNY   60  44  55 W3        30.06S
6HR MIN TEMP:  56; 6HR MAX TEMP:  61;

CHILLICOTHE      N/A     59  42  53 CALM      30.06S
6HR MIN TEMP:  57; 6HR MAX TEMP:  63;

KIRKSVILLE     CLOUDY    53  46  77 CALM      30.06S
6HR MIN TEMP:  53; 6HR MAX TEMP:  57; 6HR PCP: TRACE;


$$
MOZ066>068-077>081-088>096-101>105-030100-
...SOUTHWEST MISSOURI...

CITY           SKY/WX    TMP DP  RH WIND       PRES   REMARKS
SPRINGFIELD    CLOUDY    53  45  74 NW6       30.05S
6HR MIN TEMP:  51; 6HR MAX TEMP:  55;

JOPLIN         LGT RAIN  52  48  86 CALM      30.08S
6HR MIN TEMP:  51; 6HR MAX TEMP:  57; 6HR PCP: TRACE;

BRANSON        CLOUDY    52  46  82 NW6       30.05S

$$
MOZ032>034-039>042-045>050-055>058-069>072-030100-
...CENTRAL MISSOURI...

CITY           SKY/WX    TMP DP  RH WIND       PRES   REMARKS
COLUMBIA       CLOUDY    53  48  83 W7        30.05S
6HR MIN TEMP:  51; 6HR MAX TEMP:  54; 6HR PCP:  0.01;

JEFFERSON CITY CLOUDY    53  47  79 W7        30.05S
6HR MIN TEMP:  52; 6HR MAX TEMP:  56;

ROLLA          CLOUDY    51  46  83 NW10      30.02S
6HR MIN TEMP:  51; 6HR MAX TEMP:  54;

SEDALIA        CLOUDY    53  48  83 N3        30.07S
6HR MIN TEMP:  52; 6HR MAX TEMP:  55; 6HR PCP: TRACE;

WHITEMAN AFB   CLOUDY    53  50  88 W2        30.05F
WARRENSBURG    CLOUDY    54  46  76 CALM      30.07S
OSAGE BEACH    CLOUDY    54  39  58 W5        30.06S

$$
MOZ051-052-059>065-030100-
...EAST CENTRAL MISSOURI...

CITY           SKY/WX    TMP DP  RH WIND       PRES   REMARKS
ST LOUIS INTL  CLOUDY    56  48  74 NW6       30.02S
6HR MIN TEMP:  55; 6HR MAX TEMP:  58; 6HR PCP: TRACE;

SPIRIT OF STL  CLOUDY    55  49  80 NW7       30.01F
6HR MIN TEMP:  54; 6HR MAX TEMP:  57;

ST CHARLES     CLOUDY    54  50  86 N8        30.02S
6HR MIN TEMP:  54; 6HR MAX TEMP:  56; 6HR PCP:  0.02;


$$
MOZ072>076-082>087-097>100-106>115-030100-
...SOUTH CENTRAL AND SOUTHEAST MISSOURI...

CITY           SKY/WX    TMP DP  RH WIND       PRES   REMARKS
CAPE GIRARDEAU PTCLDY    60  49  66 N13       29.97S
6HR MIN TEMP:  60; 6HR MAX TEMP:  65;

FARMINGTON     CLOUDY    56  46  69 NW7       30.01S
6HR MIN TEMP:  56; 6HR MAX TEMP:  59;

POPLAR BLUFF   CLOUDY    63  50  62 N13       29.96R
6HR MIN TEMP:  63; 6HR MAX TEMP:  69;

WEST PLAINS    CLOUDY    57  45  64 N10       30.02S
6HR MIN TEMP:  57; 6HR MAX TEMP:  62;


$$



USA.gov is the U.S. government's official web portal to all federal, state and local government web resources and services.